Погода в Буткане

Россия / Республика Коми     63°21′44″N   49°05′52″E
темп.,
°C
ветер,
м/с
пор.,
м/с
влажн.,
%
обл.,
%
осадки,
мм/ч
давл.,
гПа
погр.,
м
26 февраля, пт
пт2600:00−17ююв4992100 0.1 1016496
03:00−18ююв4994100 0.1 1016477
06:00−19ююв41094100 0.0 1015443
09:00−18ююв4991100 0.1 1013503
12:00−17ююв5990100 0.1 1012532
15:00−16ююв51090100 0.1 1011599
18:00−18ююв41194100 0.0 1009551
21:00−19ююв31094100 0.1 1010486
27 февраля, сб
сб2700:00−20юв3996100 0.0 1010365
03:00−22вюв3798100 0.0 1011249
06:00−24вюв269897 0.0 1011179
09:00−22юв259587 0.0 1013233
12:00−17вюв238946 0.0 1013320
15:00−16вюв239059 0.0 1014382
18:00−20юв229840 0.0 101420
21:00−21ю129720 0.0 101520
28 февраля, вс
вс2800:00−22ююз12980 0.0 101520
03:00−21ююз119731 0.0 101520
06:00−19ююз229679 0.0 101544
09:00−17ююз249279 0.0 1016229
12:00−14юз249190 0.1 1016347
15:00−12зюз249095 0.1 1016403
18:00−16юз229789 0.0 101620
21:00−17юз239781 0.1 101748
1 марта, пн
пн100:00−17юз259779 0.1 1017112
03:00−16юз259787 0.1 1017119
06:00−17юз259895 0.0 1016120
09:00−12юз499497 0.1 1014275
12:00−7юз51192100 0.1 1011464
15:00−5юз61391100 0.3 1007574
18:00−4юз61394100 1.1 1002737
21:00−3юз61495100 3.8 998842
2 марта, вт
вт200:000зсз61297100 1.4 996891
03:00−2з5119284 1.6 995905
06:00−2з51291100 0.3 9941021
09:00−2з71391100 0.4 9921114
12:00−2з71293100 0.6 9911083
15:00−1з61295100 1.6 9921007
18:00−3зсз61394100 0.8 993820
21:00−7сз51291100 1.3 997740